Time,TemperatureF,DewpointF,PressureIn,WindDirection,WindDirectionDegrees,WindSpeedMPH,WindSpeedGustMPH,Humidity,HourlyPrecipIn,Conditions,Clouds,dailyrainin,SoftwareType,DateUTC
2013-03-16 00:03:00,57.0,39.0,29.91,SSW,207,4.0,11.0,50,0.00,,,0.00,,2013-03-16 04:03:00,
2013-03-16 00:13:00,57.0,39.0,29.91,SSW,207,4.0,11.0,50,0.00,,,0.00,,2013-03-16 04:13:00,
2013-03-16 00:23:00,57.0,40.0,29.91,WSW,253,4.0,13.0,53,0.00,,,0.00,,2013-03-16 04:23:00,
2013-03-16 00:33:00,57.0,40.0,29.90,SSW,198,4.0,12.0,52,0.00,,,0.00,,2013-03-16 04:33:00,
2013-03-16 00:43:00,57.0,40.0,29.90,SSW,198,4.0,12.0,52,0.00,,,0.00,,2013-03-16 04:43:00,
2013-03-16 00:52:00,57.0,39.0,29.90,SSE,158,3.0,10.0,51,0.00,,,0.00,,2013-03-16 04:52:00,
2013-03-16 01:02:00,57.0,40.0,29.90,SSW,210,3.0,9.0,52,0.00,,,0.00,,2013-03-16 05:02:00,
2013-03-16 01:12:00,57.0,40.0,29.90,SSW,210,3.0,9.0,52,0.00,,,0.00,,2013-03-16 05:12:00,
2013-03-16 01:22:00,56.0,39.0,29.89,SSW,195,4.0,10.0,53,0.00,,,0.00,,2013-03-16 05:22:00,
2013-03-16 01:32:00,56.0,39.0,29.88,SW,232,5.0,13.0,53,0.00,,,0.00,,2013-03-16 05:32:00,
2013-03-16 01:42:00,56.0,39.0,29.88,SW,232,5.0,13.0,53,0.00,,,0.00,,2013-03-16 05:42:00,
2013-03-16 01:52:00,56.0,39.0,29.88,WNW,288,4.0,15.0,53,0.00,,,0.00,,2013-03-16 05:52:00,
2013-03-16 02:02:00,56.0,40.0,29.87,SSW,206,5.0,13.0,54,0.00,,,0.00,,2013-03-16 06:02:00,
2013-03-16 02:12:00,56.0,40.0,29.87,SSW,206,5.0,13.0,54,0.00,,,0.00,,2013-03-16 06:12:00,
2013-03-16 02:22:00,56.0,40.0,29.87,SSW,202,5.0,13.0,54,0.00,,,0.00,,2013-03-16 06:22:00,
2013-03-16 02:32:00,56.0,40.0,29.86,SSW,207,3.0,12.0,54,0.00,,,0.00,,2013-03-16 06:32:00,
2013-03-16 02:42:00,56.0,40.0,29.86,SSW,207,3.0,12.0,54,0.00,,,0.00,,2013-03-16 06:42:00,
2013-03-16 02:52:00,56.0,40.0,29.87,SW,216,2.0,9.0,54,0.00,,,0.00,,2013-03-16 06:52:00,
2013-03-16 03:02:00,56.0,40.0,29.87,SSW,200,4.0,15.0,55,0.00,,,0.00,,2013-03-16 07:02:00,
2013-03-16 03:12:00,56.0,40.0,29.87,SSW,200,4.0,15.0,55,0.00,,,0.00,,2013-03-16 07:12:00,
2013-03-16 03:22:00,55.0,39.0,29.87,SSW,212,5.0,10.0,55,0.00,,,0.00,,2013-03-16 07:22:00,
2013-03-16 03:32:00,55.0,39.0,29.87,SW,219,5.0,10.0,55,0.00,,,0.00,,2013-03-16 07:32:00,
2013-03-16 03:42:00,55.0,39.0,29.87,SW,219,5.0,10.0,55,0.00,,,0.00,,2013-03-16 07:42:00,
2013-03-16 03:52:00,55.0,39.0,29.87,SW,215,4.0,11.0,54,0.00,,,0.00,,2013-03-16 07:52:00,
2013-03-16 04:03:00,55.0,39.0,29.86,SSW,198,6.0,11.0,55,0.00,,,0.00,,2013-03-16 08:03:00,
2013-03-16 04:12:00,55.0,39.0,29.86,SSW,198,6.0,11.0,55,0.00,,,0.00,,2013-03-16 08:12:00,
2013-03-16 04:23:00,55.0,39.0,29.86,SSW,194,4.0,10.0,55,0.00,,,0.00,,2013-03-16 08:23:00,
2013-03-16 04:33:00,55.0,39.0,29.86,SSW,210,6.0,10.0,55,0.00,,,0.00,,2013-03-16 08:33:00,
2013-03-16 04:42:00,55.0,39.0,29.86,SSW,210,6.0,10.0,55,0.00,,,0.00,,2013-03-16 08:42:00,
2013-03-16 04:52:00,55.0,39.0,29.85,SSW,208,4.0,15.0,54,0.00,,,0.00,,2013-03-16 08:52:00,
2013-03-16 05:02:00,55.0,39.0,29.85,SSW,201,3.0,13.0,54,0.00,,,0.00,,2013-03-16 09:02:00,
2013-03-16 05:12:00,55.0,39.0,29.85,SSW,201,3.0,13.0,54,0.00,,,0.00,,2013-03-16 09:12:00,
2013-03-16 05:22:00,55.0,39.0,29.85,SSW,208,2.0,13.0,54,0.00,,,0.00,,2013-03-16 09:22:00,
2013-03-16 05:33:00,55.0,39.0,29.85,South,180,3.0,12.0,54,0.00,,,0.00,,2013-03-16 09:33:00,
2013-03-16 05:42:00,55.0,39.0,29.85,South,180,3.0,12.0,54,0.00,,,0.00,,2013-03-16 09:42:00,
2013-03-16 05:52:00,55.0,39.0,29.85,SW,214,4.0,9.0,55,0.00,,,0.00,,2013-03-16 09:52:00,
2013-03-16 06:03:00,55.0,39.0,29.85,South,169,5.0,14.0,54,0.00,,,0.00,,2013-03-16 10:03:00,
2013-03-16 06:12:00,55.0,39.0,29.85,South,169,5.0,14.0,54,0.00,,,0.00,,2013-03-16 10:12:00,
2013-03-16 06:23:00,55.0,40.0,29.85,SSW,203,2.0,9.0,56,0.00,,,0.00,,2013-03-16 10:23:00,
2013-03-16 06:32:00,55.0,39.0,29.86,South,189,6.0,10.0,55,0.00,,,0.00,,2013-03-16 10:32:00,
2013-03-16 06:42:00,55.0,39.0,29.86,South,189,6.0,10.0,55,0.00,,,0.00,,2013-03-16 10:42:00,
2013-03-16 06:52:00,55.0,39.0,29.86,SSW,202,4.0,12.0,54,0.00,,,0.00,,2013-03-16 10:52:00,
2013-03-16 07:03:00,55.0,39.0,29.86,SSW,205,3.0,11.0,54,0.00,,,0.00,,2013-03-16 11:03:00,
2013-03-16 07:12:00,55.0,39.0,29.86,SSW,205,3.0,11.0,54,0.00,,,0.00,,2013-03-16 11:12:00,
2013-03-16 07:22:00,55.0,39.0,29.86,SSW,207,2.0,11.0,55,0.00,,,0.00,,2013-03-16 11:22:00,
2013-03-16 07:33:00,54.0,38.0,29.86,SW,218,3.0,9.0,55,0.00,,,0.00,,2013-03-16 11:33:00,
2013-03-16 07:43:00,54.0,38.0,29.86,SW,218,3.0,9.0,55,0.00,,,0.00,,2013-03-16 11:43:00,
2013-03-16 07:52:00,54.0,39.0,29.86,SSW,193,3.0,8.0,56,0.00,,,0.00,,2013-03-16 11:52:00,
2013-03-16 08:02:00,54.0,39.0,29.87,SSW,202,3.0,7.0,57,0.00,,,0.00,,2013-03-16 12:02:00,
2013-03-16 08:12:00,54.0,39.0,29.87,SSW,202,3.0,7.0,57,0.00,,,0.00,,2013-03-16 12:12:00,
2013-03-16 08:22:00,54.0,39.0,29.87,SSW,199,3.0,7.0,57,0.00,,,0.00,,2013-03-16 12:22:00,
2013-03-16 08:32:00,54.0,39.0,29.87,SSW,207,5.0,11.0,57,0.00,,,0.00,,2013-03-16 12:32:00,
2013-03-16 08:42:00,54.0,39.0,29.87,SSW,207,5.0,11.0,57,0.00,,,0.00,,2013-03-16 12:42:00,
2013-03-16 08:52:00,54.0,39.0,29.87,SW,222,4.0,9.0,56,0.00,,,0.00,,2013-03-16 12:52:00,
2013-03-16 09:02:00,55.0,40.0,29.87,SW,228,4.0,11.0,57,0.00,,,0.00,,2013-03-16 13:02:00,
2013-03-16 09:12:00,55.0,40.0,29.87,SW,228,4.0,11.0,57,0.00,,,0.00,,2013-03-16 13:12:00,
2013-03-16 09:22:00,55.0,40.0,29.86,SW,222,5.0,9.0,56,0.00,,,0.00,,2013-03-16 13:22:00,
2013-03-16 09:32:00,55.0,40.0,29.86,WSW,244,3.0,10.0,56,0.00,,,0.00,,2013-03-16 13:32:00,
2013-03-16 09:42:00,55.0,40.0,29.86,WSW,244,3.0,10.0,56,0.00,,,0.00,,2013-03-16 13:42:00,
2013-03-16 09:52:00,56.0,40.0,29.86,SSW,207,4.0,14.0,55,0.00,,,0.00,,2013-03-16 13:52:00,
2013-03-16 10:03:00,56.0,40.0,29.86,SSW,201,3.0,11.0,55,0.00,,,0.00,,2013-03-16 14:03:00,
2013-03-16 10:12:00,56.0,40.0,29.86,SSW,201,3.0,11.0,55,0.00,,,0.00,,2013-03-16 14:12:00,
2013-03-16 10:22:00,57.0,41.0,29.86,South,173,3.0,12.0,55,0.00,,,0.00,,2013-03-16 14:22:00,
2013-03-16 10:32:00,59.0,42.0,29.85,SW,218,3.0,10.0,53,0.00,,,0.00,,2013-03-16 14:32:00,
2013-03-16 10:42:00,59.0,42.0,29.85,SW,218,3.0,10.0,53,0.00,,,0.00,,2013-03-16 14:42:00,
2013-03-16 10:52:00,60.0,42.0,29.85,WSW,255,7.0,13.0,51,0.00,,,0.00,,2013-03-16 14:52:00,
2013-03-16 11:03:00,62.0,43.0,29.85,SSW,210,6.0,15.0,50,0.00,,,0.00,,2013-03-16 15:03:00,
2013-03-16 11:13:00,62.0,43.0,29.85,SSW,210,6.0,15.0,50,0.00,,,0.00,,2013-03-16 15:13:00,
2013-03-16 11:23:00,63.0,43.0,29.85,South,184,6.0,15.0,48,0.00,,,0.00,,2013-03-16 15:23:00,
2013-03-16 11:33:00,64.0,43.0,29.85,NW,320,6.0,20.0,46,0.00,,,0.00,,2013-03-16 15:33:00,
2013-03-16 11:43:00,64.0,43.0,29.85,NW,320,6.0,20.0,46,0.00,,,0.00,,2013-03-16 15:43:00,
2013-03-16 11:53:00,65.0,43.0,29.85,SE,138,5.0,23.0,45,0.00,,,0.00,,2013-03-16 15:53:00,
2013-03-16 12:03:00,65.0,44.0,29.85,SSW,207,6.0,22.0,46,0.00,,,0.00,,2013-03-16 16:03:00,
2013-03-16 12:12:00,65.0,44.0,29.85,SSW,207,6.0,22.0,46,0.00,,,0.00,,2013-03-16 16:12:00,
2013-03-16 12:23:00,65.0,43.0,29.85,SW,232,10.0,20.0,45,0.00,,,0.00,,2013-03-16 16:23:00,
2013-03-16 12:33:00,66.0,43.0,29.84,WSW,250,12.0,26.0,43,0.00,,,0.00,,2013-03-16 16:33:00,
2013-03-16 12:42:00,66.0,43.0,29.84,WSW,250,12.0,26.0,43,0.00,,,0.00,,2013-03-16 16:42:00,
2013-03-16 12:53:00,67.0,43.0,29.83,WSW,239,3.0,14.0,42,0.00,,,0.00,,2013-03-16 16:53:00,
2013-03-16 13:03:00,68.0,43.0,29.83,SSW,208,10.0,17.0,40,0.00,,,0.00,,2013-03-16 17:03:00,
2013-03-16 13:13:00,68.0,43.0,29.83,SSW,208,10.0,17.0,40,0.00,,,0.00,,2013-03-16 17:13:00,
2013-03-16 13:23:00,68.0,43.0,29.83,WSW,254,7.0,21.0,40,0.00,,,0.00,,2013-03-16 17:23:00,
2013-03-16 13:33:00,68.0,43.0,29.82,SW,218,5.0,12.0,41,0.00,,,0.00,,2013-03-16 17:33:00,
2013-03-16 13:42:00,68.0,43.0,29.82,SW,218,5.0,12.0,41,0.00,,,0.00,,2013-03-16 17:42:00,
2013-03-16 13:52:00,69.0,44.0,29.82,SSW,210,8.0,15.0,40,0.00,,,0.00,,2013-03-16 17:52:00,
2013-03-16 14:03:00,69.0,44.0,29.82,SSW,203,8.0,16.0,40,0.00,,,0.00,,2013-03-16 18:03:00,
2013-03-16 14:13:00,69.0,44.0,29.82,SSW,203,8.0,16.0,40,0.00,,,0.00,,2013-03-16 18:13:00,
2013-03-16 14:23:00,70.0,44.0,29.82,SW,220,7.0,12.0,39,0.00,,,0.00,,2013-03-16 18:23:00,
2013-03-16 14:33:00,71.0,43.0,29.81,South,190,7.0,15.0,37,0.00,,,0.00,,2013-03-16 18:33:00,
2013-03-16 14:43:00,71.0,43.0,29.81,South,190,7.0,15.0,37,0.00,,,0.00,,2013-03-16 18:43:00,
2013-03-16 14:52:00,71.0,43.0,29.81,SW,220,8.0,16.0,36,0.00,,,0.00,,2013-03-16 18:52:00,
2013-03-16 15:02:00,72.0,44.0,29.80,SW,217,8.0,18.0,36,0.00,,,0.00,,2013-03-16 19:02:00,
2013-03-16 15:12:00,72.0,44.0,29.80,SW,217,8.0,18.0,36,0.00,,,0.00,,2013-03-16 19:12:00,
2013-03-16 15:22:00,72.0,42.0,29.80,WSW,249,6.0,15.0,34,0.00,,,0.00,,2013-03-16 19:22:00,
2013-03-16 15:33:00,72.0,43.0,29.79,West,274,6.0,12.0,35,0.00,,,0.00,,2013-03-16 19:33:00,
2013-03-16 15:42:00,72.0,43.0,29.79,West,274,6.0,12.0,35,0.00,,,0.00,,2013-03-16 19:42:00,
2013-03-16 15:52:00,72.0,41.0,29.79,SW,216,6.0,19.0,33,0.00,,,0.00,,2013-03-16 19:52:00,
2013-03-16 16:02:00,73.0,42.0,29.79,South,180,8.0,15.0,33,0.00,,,0.00,,2013-03-16 20:02:00,
2013-03-16 16:12:00,73.0,42.0,29.79,South,180,8.0,15.0,33,0.00,,,0.00,,2013-03-16 20:12:00,
2013-03-16 16:22:00,72.0,43.0,29.78,SSW,205,2.0,16.0,35,0.00,,,0.00,,2013-03-16 20:22:00,
2013-03-16 16:33:00,72.0,43.0,29.78,SW,225,2.0,11.0,35,0.00,,,0.00,,2013-03-16 20:33:00,
2013-03-16 16:42:00,72.0,43.0,29.78,SW,225,2.0,11.0,35,0.00,,,0.00,,2013-03-16 20:42:00,
2013-03-16 16:52:00,72.0,41.0,29.78,WNW,288,5.0,11.0,33,0.00,,,0.00,,2013-03-16 20:52:00,
2013-03-16 17:02:00,73.0,42.0,29.78,West,280,5.0,11.0,33,0.00,,,0.00,,2013-03-16 21:02:00,
2013-03-16 17:12:00,73.0,42.0,29.78,West,280,5.0,11.0,33,0.00,,,0.00,,2013-03-16 21:12:00,
2013-03-16 17:22:00,73.0,43.0,29.78,SSE,158,6.0,15.0,34,0.00,,,0.00,,2013-03-16 21:22:00,
2013-03-16 17:33:00,72.0,42.0,29.78,WSW,240,4.0,12.0,34,0.00,,,0.00,,2013-03-16 21:33:00,
2013-03-16 17:43:00,72.0,42.0,29.78,WSW,240,4.0,12.0,34,0.00,,,0.00,,2013-03-16 21:43:00,
2013-03-16 17:52:00,72.0,43.0,29.78,SSE,148,7.0,14.0,35,0.00,,,0.00,,2013-03-16 21:52:00,
2013-03-16 18:03:00,71.0,43.0,29.79,SSW,200,4.0,13.0,36,0.00,,,0.00,,2013-03-16 22:03:00,
2013-03-16 18:13:00,71.0,43.0,29.79,SSW,200,4.0,13.0,36,0.00,,,0.00,,2013-03-16 22:13:00,
2013-03-16 18:23:00,71.0,42.0,29.78,SSE,156,3.0,11.0,35,0.00,,,0.00,,2013-03-16 22:23:00,
2013-03-16 18:33:00,70.0,43.0,29.79,SSW,211,2.0,13.0,37,0.00,,,0.00,,2013-03-16 22:33:00,
2013-03-16 18:42:00,70.0,43.0,29.79,SSW,211,2.0,13.0,37,0.00,,,0.00,,2013-03-16 22:42:00,
2013-03-16 18:52:00,69.0,41.0,29.79,SW,235,3.0,8.0,36,0.00,,,0.00,,2013-03-16 22:52:00,
2013-03-16 19:02:00,68.0,41.0,29.80,SSW,201,2.0,9.0,38,0.00,,,0.00,,2013-03-16 23:02:00,
2013-03-16 19:13:00,68.0,41.0,29.80,SSW,201,2.0,9.0,38,0.00,,,0.00,,2013-03-16 23:13:00,
2013-03-16 19:23:00,68.0,41.0,29.80,SSE,154,3.0,13.0,37,0.00,,,0.00,,2013-03-16 23:23:00,
2013-03-16 19:33:00,68.0,42.0,29.81,SSW,206,6.0,19.0,39,0.00,,,0.00,,2013-03-16 23:33:00,
2013-03-16 19:42:00,68.0,42.0,29.81,SSW,206,6.0,19.0,39,0.00,,,0.00,,2013-03-16 23:42:00,
2013-03-16 19:52:00,67.0,41.0,29.82,SSW,209,11.0,27.0,39,0.00,,,0.00,,2013-03-16 23:52:00,
2013-03-16 20:02:00,66.0,42.0,29.82,SSW,195,7.0,17.0,41,0.00,,,0.00,,2013-03-17 00:02:00,
2013-03-16 20:12:00,66.0,42.0,29.82,SSW,195,7.0,17.0,41,0.00,,,0.00,,2013-03-17 00:12:00,
2013-03-16 20:22:00,66.0,42.0,29.82,SE,146,8.0,26.0,42,0.00,,,0.00,,2013-03-17 00:22:00,
2013-03-16 20:33:00,66.0,42.0,29.84,SSE,158,9.0,26.0,42,0.00,,,0.00,,2013-03-17 00:33:00,
2013-03-16 20:42:00,66.0,42.0,29.84,SSE,158,9.0,26.0,42,0.00,,,0.00,,2013-03-17 00:42:00,
2013-03-16 20:52:00,66.0,43.0,29.86,ENE,62,10.0,23.0,43,0.00,,,0.00,,2013-03-17 00:52:00,
2013-03-16 21:02:00,65.0,43.0,29.86,SE,139,4.0,23.0,45,0.00,,,0.00,,2013-03-17 01:02:00,
2013-03-16 21:12:00,65.0,43.0,29.86,SE,139,4.0,23.0,45,0.00,,,0.00,,2013-03-17 01:12:00,
2013-03-16 21:22:00,65.0,44.0,29.87,SW,219,6.0,25.0,46,0.00,,,0.00,,2013-03-17 01:22:00,
2013-03-16 21:32:00,64.0,43.0,29.87,South,175,8.0,17.0,47,0.00,,,0.00,,2013-03-17 01:32:00,
2013-03-16 21:42:00,64.0,43.0,29.87,South,175,8.0,17.0,47,0.00,,,0.00,,2013-03-17 01:42:00,
2013-03-16 21:52:00,64.0,43.0,29.88,WSW,241,8.0,25.0,47,0.00,,,0.00,,2013-03-17 01:52:00,
2013-03-16 22:03:00,64.0,44.0,29.88,South,191,5.0,14.0,48,0.00,,,0.00,,2013-03-17 02:03:00,
2013-03-16 22:13:00,64.0,44.0,29.88,South,191,5.0,14.0,48,0.00,,,0.00,,2013-03-17 02:13:00,
2013-03-16 22:22:00,64.0,44.0,29.89,South,190,8.0,19.0,49,0.00,,,0.00,,2013-03-17 02:22:00,
2013-03-16 22:33:00,63.0,44.0,29.89,South,181,5.0,12.0,49,0.00,,,0.00,,2013-03-17 02:33:00,
2013-03-16 22:43:00,63.0,44.0,29.89,South,181,5.0,12.0,49,0.00,,,0.00,,2013-03-17 02:43:00,
2013-03-16 22:52:00,63.0,44.0,29.90,SSW,207,5.0,17.0,49,0.00,,,0.00,,2013-03-17 02:52:00,
2013-03-16 23:03:00,63.0,44.0,29.90,North,353,4.0,16.0,49,0.00,,,0.00,,2013-03-17 03:03:00,
2013-03-16 23:12:00,63.0,44.0,29.90,North,353,4.0,16.0,49,0.00,,,0.00,,2013-03-17 03:12:00,
2013-03-16 23:23:00,63.0,44.0,29.90,North,349,4.0,10.0,49,0.00,,,0.00,,2013-03-17 03:23:00,
2013-03-16 23:34:00,62.0,44.0,29.89,SSE,154,7.0,15.0,51,0.00,,,0.00,,2013-03-17 03:34:00,
2013-03-16 23:43:00,62.0,44.0,29.89,SSE,154,7.0,15.0,51,0.00,,,0.00,,2013-03-17 03:43:00,
2013-03-16 23:52:00,62.0,44.0,29.90,WSW,241,6.0,16.0,51,0.00,,,0.00,,2013-03-17 03:52:00,